{"data":{"norad_id":66105,"epoch":"2026-05-25T04:08:57.403104Z","epoch_age_seconds":60866,"freshness":"FRESH","line1":"1 66105U 25236V   26145.17288661  .00018285  00000+0  62776-3 0  9997","line2":"2 66105  53.1584 108.6746 0001342  92.0655 268.0500 15.30209760 34590","mean_motion":15.3020976,"eccentricity":0.0001342,"inclination_deg":53.1584,"raan_deg":108.6746,"arg_perigee_deg":92.0655,"mean_anomaly_deg":268.05,"bstar":0.00062776,"rev_number":3459,"period_min":94.104745482737,"perigee_km":474.26621203653,"apogee_km":476.1056439104,"semimajor_km":6853.3229279735,"source":"CELESTRAK","updated_at":"2026-05-25T13:38:21.053901Z"}}